Time,TemperatureF,DewpointF,PressureIn,WindDirection,WindDirectionDegrees,WindSpeedMPH,WindSpeedGustMPH,Humidity,HourlyPrecipIn,Conditions,Clouds,dailyrainin,SolarRadiationWatts/m^2,SoftwareType,DateUTC
2013-06-24 00:00:00,76.3,72.2,30.01,SE,138,0.0,0.0,87,0.00,,---,0.00,0.00,VWS V14.00,2013-06-24 05:00:00,
2013-06-24 00:01:00,76.3,71.8,30.01,SE,138,0.0,0.0,86,0.00,,---,0.00,0.00,VWS V14.00,2013-06-24 05:01:00,
2013-06-24 00:06:00,76.4,71.9,30.01,SE,138,0.0,0.0,86,0.00,,---,0.00,0.00,VWS V14.00,2013-06-24 05:06:00,
2013-06-24 00:11:00,76.4,71.9,30.01,SE,138,0.0,0.0,86,0.00,,---,0.00,0.00,VWS V14.00,2013-06-24 05:11:00,
2013-06-24 00:16:00,76.4,71.6,30.01,SE,138,0.0,0.0,85,0.00,,---,0.00,0.00,VWS V14.00,2013-06-24 05:16:00,
2013-06-24 00:21:00,76.4,71.6,30.02,SE,138,0.0,0.0,85,0.00,,---,0.00,0.00,VWS V14.00,2013-06-24 05:21:00,
2013-06-24 00:26:00,76.4,71.6,30.01,SE,138,0.0,0.0,85,0.00,,---,0.00,0.00,VWS V14.00,2013-06-24 05:26:00,
2013-06-24 00:30:00,76.4,71.6,30.01,SE,138,0.0,0.0,85,0.00,,---,0.00,0.00,VWS V14.00,2013-06-24 05:30:00,
2013-06-24 00:31:00,76.4,71.9,30.01,SE,138,0.0,0.0,86,0.00,,---,0.00,0.00,VWS V14.00,2013-06-24 05:31:00,
2013-06-24 00:36:00,76.5,72.0,30.01,SE,138,0.0,0.0,86,0.00,,---,0.00,0.00,VWS V14.00,2013-06-24 05:36:00,
2013-06-24 00:41:00,76.5,72.0,30.01,SE,138,0.0,0.0,86,0.00,,---,0.00,0.00,VWS V14.00,2013-06-24 05:41:00,
2013-06-24 00:46:00,76.5,72.0,30.01,SE,138,0.0,0.0,86,0.00,,---,0.00,0.00,VWS V14.00,2013-06-24 05:46:00,
2013-06-24 00:51:00,76.5,72.3,30.01,SE,138,0.0,0.0,87,0.00,,---,0.00,0.00,VWS V14.00,2013-06-24 05:51:00,
2013-06-24 00:56:00,76.5,72.3,30.01,SE,138,0.0,0.0,87,0.00,,---,0.00,0.00,VWS V14.00,2013-06-24 05:56:00,
2013-06-24 01:00:00,76.4,72.2,30.01,SE,138,0.0,0.0,87,0.00,,---,0.00,0.00,VWS V14.00,2013-06-24 06:00:00,
2013-06-24 01:01:00,76.4,72.2,30.01,SE,138,0.0,1.0,87,0.00,,---,0.00,0.00,VWS V14.00,2013-06-24 06:01:00,
2013-06-24 01:06:00,76.4,72.2,30.02,SE,138,0.0,1.0,87,0.00,,---,0.00,0.00,VWS V14.00,2013-06-24 06:06:00,
2013-06-24 01:11:00,76.4,72.2,30.02,SE,138,0.0,1.0,87,0.00,,---,0.00,0.00,VWS V14.00,2013-06-24 06:11:00,
2013-06-24 01:16:00,76.4,72.2,30.02,SE,138,0.0,1.0,87,0.00,,---,0.00,0.00,VWS V14.00,2013-06-24 06:16:00,
2013-06-24 01:22:00,76.3,72.2,30.02,SE,138,0.0,1.0,87,0.00,,---,0.00,0.00,VWS V14.00,2013-06-24 06:22:00,
2013-06-24 01:27:00,76.3,72.2,30.02,SE,138,0.0,1.0,87,0.00,,---,0.00,0.00,VWS V14.00,2013-06-24 06:27:00,
2013-06-24 01:30:00,76.3,72.2,30.02,SE,138,0.0,4.0,87,0.00,,---,0.00,0.00,VWS V14.00,2013-06-24 06:30:00,
2013-06-24 01:32:00,76.4,72.2,30.02,SE,138,0.0,1.0,87,0.00,,---,0.00,0.00,VWS V14.00,2013-06-24 06:32:00,
2013-06-24 01:37:00,76.4,72.2,30.02,SE,138,0.0,1.0,87,0.00,,---,0.00,0.00,VWS V14.00,2013-06-24 06:37:00,
2013-06-24 01:42:00,76.5,72.3,30.02,SE,138,1.0,1.0,87,0.00,,---,0.00,0.00,VWS V14.00,2013-06-24 06:42:00,
2013-06-24 01:47:00,76.5,72.3,30.02,SE,138,0.0,2.0,87,0.00,,---,0.00,0.00,VWS V14.00,2013-06-24 06:47:00,
2013-06-24 01:52:00,76.6,72.4,30.02,SE,138,0.0,2.0,87,0.00,,---,0.00,0.00,VWS V14.00,2013-06-24 06:52:00,
2013-06-24 01:57:00,76.6,72.4,30.02,SE,138,0.0,0.0,87,0.00,,---,0.00,0.00,VWS V14.00,2013-06-24 06:57:00,
2013-06-24 02:00:00,76.6,72.4,30.02,SE,138,0.0,2.0,87,0.00,,---,0.00,0.00,VWS V14.00,2013-06-24 07:00:00,
2013-06-24 02:02:00,76.6,72.4,30.02,SE,138,0.0,0.0,87,0.00,,---,0.00,0.00,VWS V14.00,2013-06-24 07:02:00,
2013-06-24 02:07:00,76.5,72.3,30.02,SE,138,0.0,0.0,87,0.00,,---,0.00,0.00,VWS V14.00,2013-06-24 07:07:00,
2013-06-24 02:12:00,76.4,72.6,30.02,SE,138,0.0,0.0,88,0.00,,---,0.00,0.00,VWS V14.00,2013-06-24 07:12:00,
2013-06-24 02:17:00,76.4,72.6,30.02,SE,138,0.0,0.0,88,0.00,,---,0.00,0.00,VWS V14.00,2013-06-24 07:17:00,
2013-06-24 02:22:00,76.3,72.5,30.02,SE,138,0.0,0.0,88,0.00,,---,0.00,0.00,VWS V14.00,2013-06-24 07:22:00,
2013-06-24 02:28:00,76.2,72.4,30.02,SE,138,0.0,0.0,88,0.00,,---,0.00,0.00,VWS V14.00,2013-06-24 07:28:00,
2013-06-24 02:30:00,76.2,72.4,30.02,SE,138,0.0,0.0,88,0.00,,---,0.00,0.00,VWS V14.00,2013-06-24 07:30:00,
2013-06-24 02:33:00,76.0,72.2,30.02,SE,138,0.0,0.0,88,0.00,,---,0.00,0.00,VWS V14.00,2013-06-24 07:33:00,
2013-06-24 02:38:00,76.0,72.2,30.02,SE,138,0.0,0.0,88,0.00,,---,0.00,0.00,VWS V14.00,2013-06-24 07:38:00,
2013-06-24 02:43:00,75.9,72.1,30.02,SE,138,0.0,0.0,88,0.00,,---,0.00,0.00,VWS V14.00,2013-06-24 07:43:00,
2013-06-24 02:48:00,75.8,72.3,30.02,SE,138,0.0,0.0,89,0.00,,---,0.00,0.00,VWS V14.00,2013-06-24 07:48:00,
2013-06-24 02:53:00,75.7,72.2,30.02,SE,138,0.0,0.0,89,0.00,,---,0.00,0.00,VWS V14.00,2013-06-24 07:53:00,
2013-06-24 02:58:00,75.7,72.2,30.02,SE,138,0.0,2.0,89,0.00,,---,0.00,0.00,VWS V14.00,2013-06-24 07:58:00,
2013-06-24 03:00:00,75.7,72.2,30.02,SE,138,0.0,0.0,89,0.00,,---,0.00,0.00,VWS V14.00,2013-06-24 08:00:00,
2013-06-24 03:03:00,75.6,72.5,30.02,SE,138,0.0,2.0,90,0.00,,---,0.00,0.00,VWS V14.00,2013-06-24 08:03:00,
2013-06-24 03:08:00,75.5,72.4,30.02,SE,138,0.0,3.0,90,0.00,,---,0.00,0.00,VWS V14.00,2013-06-24 08:08:00,
2013-06-24 03:13:00,75.5,72.4,30.02,SE,138,0.0,3.0,90,0.00,,---,0.00,0.00,VWS V14.00,2013-06-24 08:13:00,
2013-06-24 03:18:00,75.5,72.4,30.02,SE,138,0.0,3.0,90,0.00,,---,0.00,0.00,VWS V14.00,2013-06-24 08:18:00,
2013-06-24 03:23:00,75.5,72.4,30.02,SE,138,0.0,3.0,90,0.00,,---,0.00,0.00,VWS V14.00,2013-06-24 08:23:00,
2013-06-24 03:28:00,75.5,72.4,30.02,SE,138,0.0,0.0,90,0.00,,---,0.00,0.00,VWS V14.00,2013-06-24 08:28:00,
2013-06-24 03:30:00,75.5,72.4,30.02,SE,138,0.0,3.0,90,0.00,,---,0.00,0.00,VWS V14.00,2013-06-24 08:30:00,
2013-06-24 03:33:00,75.5,72.4,30.02,SE,138,0.0,0.0,90,0.00,,---,0.00,0.00,VWS V14.00,2013-06-24 08:33:00,
2013-06-24 03:39:00,75.5,72.7,30.02,SSE,161,1.0,5.0,91,0.00,,---,0.00,0.00,VWS V14.00,2013-06-24 08:39:00,
2013-06-24 03:44:00,75.5,72.7,30.02,SSE,152,0.0,5.0,91,0.00,,---,0.00,0.00,VWS V14.00,2013-06-24 08:44:00,
2013-06-24 03:49:00,75.5,72.4,30.01,South,190,0.0,5.0,90,0.00,,---,0.00,0.00,VWS V14.00,2013-06-24 08:49:00,
2013-06-24 03:54:00,75.5,72.7,30.01,South,171,3.0,5.0,91,0.00,,---,0.00,0.00,VWS V14.00,2013-06-24 08:54:00,
2013-06-24 03:59:00,75.6,72.8,30.02,South,175,0.0,5.0,91,0.00,,---,0.00,0.00,VWS V14.00,2013-06-24 08:59:00,
2013-06-24 04:00:00,75.6,72.8,30.02,South,169,0.0,5.0,91,0.00,,---,0.00,0.00,VWS V14.00,2013-06-24 09:00:00,
2013-06-24 04:04:00,75.6,72.5,30.02,South,171,0.0,5.0,90,0.00,,---,0.00,0.00,VWS V14.00,2013-06-24 09:04:00,
2013-06-24 04:09:00,75.5,72.4,30.02,South,169,0.0,5.0,90,0.00,,---,0.00,0.00,VWS V14.00,2013-06-24 09:09:00,
2013-06-24 04:14:00,75.5,72.4,30.02,SSE,153,0.0,6.0,90,0.00,,---,0.00,0.00,VWS V14.00,2013-06-24 09:14:00,
2013-06-24 04:19:00,75.5,72.4,30.02,SSE,163,0.0,6.0,90,0.00,,---,0.00,0.00,VWS V14.00,2013-06-24 09:19:00,
2013-06-24 04:24:00,75.4,72.3,30.02,SSE,163,0.0,6.0,90,0.00,,---,0.00,0.00,VWS V14.00,2013-06-24 09:24:00,
2013-06-24 04:29:00,75.4,72.3,30.02,SSE,163,0.0,0.0,90,0.00,,---,0.00,0.00,VWS V14.00,2013-06-24 09:29:00,
2013-06-24 04:30:00,75.4,72.3,30.02,SSE,163,0.0,6.0,90,0.00,,---,0.00,0.00,VWS V14.00,2013-06-24 09:30:00,
2013-06-24 04:34:00,75.3,72.2,30.02,SSE,163,0.0,0.0,90,0.00,,---,0.00,0.00,VWS V14.00,2013-06-24 09:34:00,
2013-06-24 04:40:00,75.3,72.2,30.03,SSE,163,0.0,0.0,90,0.00,,---,0.00,0.00,VWS V14.00,2013-06-24 09:40:00,
2013-06-24 04:45:00,75.3,72.2,30.03,SSE,163,0.0,0.0,90,0.00,,---,0.00,0.00,VWS V14.00,2013-06-24 09:45:00,
2013-06-24 04:50:00,75.2,72.1,30.02,SSE,163,0.0,0.0,90,0.00,,---,0.00,0.00,VWS V14.00,2013-06-24 09:50:00,
2013-06-24 04:55:00,75.2,72.1,30.02,SSE,163,0.0,0.0,90,0.00,,---,0.00,0.00,VWS V14.00,2013-06-24 09:55:00,
2013-06-24 05:00:00,75.1,72.0,30.03,SSE,163,0.0,0.0,90,0.00,,---,0.00,0.00,VWS V14.00,2013-06-24 10:00:00,
2013-06-24 05:05:00,75.0,71.9,30.03,SSE,163,0.0,0.0,90,0.00,,---,0.00,0.00,VWS V14.00,2013-06-24 10:05:00,
2013-06-24 05:10:00,74.9,71.8,30.03,SSE,163,0.0,1.0,90,0.00,,---,0.00,0.00,VWS V14.00,2013-06-24 10:10:00,
2013-06-24 05:15:00,74.8,71.7,30.03,SSE,163,0.0,1.0,90,0.00,,---,0.00,0.00,VWS V14.00,2013-06-24 10:15:00,
2013-06-24 05:20:00,74.8,71.7,30.03,SSE,163,0.0,1.0,90,0.00,,---,0.00,0.00,VWS V14.00,2013-06-24 10:20:00,
2013-06-24 05:25:00,74.7,71.6,30.03,SSE,163,0.0,1.0,90,0.00,,---,0.00,0.00,VWS V14.00,2013-06-24 10:25:00,
2013-06-24 05:30:00,74.7,71.6,30.03,SSE,163,0.0,0.0,90,0.00,,---,0.00,0.00,VWS V14.00,2013-06-24 10:30:00,
2013-06-24 05:35:00,74.7,71.6,30.03,SSE,163,0.0,0.0,90,0.00,,---,0.00,0.00,VWS V14.00,2013-06-24 10:35:00,
2013-06-24 05:41:00,74.6,71.5,30.04,SSE,163,0.0,0.0,90,0.00,,---,0.00,0.00,VWS V14.00,2013-06-24 10:41:00,
2013-06-24 05:46:00,74.6,71.8,30.04,SSE,163,0.0,0.0,91,0.00,,---,0.00,0.00,VWS V14.00,2013-06-24 10:46:00,
2013-06-24 05:51:00,74.5,71.7,30.04,SSE,163,0.0,0.0,91,0.00,,---,0.00,0.00,VWS V14.00,2013-06-24 10:51:00,
2013-06-24 05:56:00,74.5,71.7,30.03,SSE,163,0.0,0.0,91,0.00,,---,0.00,5.00,VWS V14.00,2013-06-24 10:56:00,
2013-06-24 06:00:00,74.5,71.7,30.03,SSE,163,0.0,0.0,91,0.00,,---,0.00,5.00,VWS V14.00,2013-06-24 11:00:00,
2013-06-24 06:01:00,74.4,71.6,30.04,SSE,163,0.0,0.0,91,0.00,,---,0.00,11.00,VWS V14.00,2013-06-24 11:01:00,
2013-06-24 06:06:00,74.4,71.6,30.03,SSE,163,0.0,0.0,91,0.00,,---,0.00,14.00,VWS V14.00,2013-06-24 11:06:00,
2013-06-24 06:11:00,74.4,71.6,30.04,SSE,163,0.0,0.0,91,0.00,,---,0.00,18.00,VWS V14.00,2013-06-24 11:11:00,
2013-06-24 06:16:00,74.4,71.6,30.04,SSE,163,0.0,0.0,91,0.00,,---,0.00,21.00,VWS V14.00,2013-06-24 11:16:00,
2013-06-24 06:21:00,74.4,71.9,30.04,SSE,163,0.0,0.0,92,0.00,,---,0.00,26.00,VWS V14.00,2013-06-24 11:21:00,
2013-06-24 06:26:00,74.4,71.9,30.04,SSE,163,0.0,0.0,92,0.00,,---,0.00,28.00,VWS V14.00,2013-06-24 11:26:00,
2013-06-24 06:30:00,74.4,71.9,30.04,SSE,163,0.0,0.0,92,0.00,,---,0.00,28.00,VWS V14.00,2013-06-24 11:30:00,
2013-06-24 06:32:00,74.5,72.0,30.04,SSE,163,0.0,0.0,92,0.00,,---,0.00,32.00,VWS V14.00,2013-06-24 11:32:00,
2013-06-24 06:37:00,74.5,72.0,30.05,SSE,163,0.0,0.0,92,0.00,,---,0.00,35.00,VWS V14.00,2013-06-24 11:37:00,
2013-06-24 06:42:00,74.6,72.1,30.05,SSE,163,0.0,1.0,92,0.00,,---,0.00,39.00,VWS V14.00,2013-06-24 11:42:00,
2013-06-24 06:47:00,74.7,72.2,30.05,SSE,163,0.0,1.0,92,0.00,,---,0.00,40.00,VWS V14.00,2013-06-24 11:47:00,
2013-06-24 06:52:00,74.8,72.3,30.05,SSE,163,0.0,1.0,92,0.00,,---,0.00,44.00,VWS V14.00,2013-06-24 11:52:00,
2013-06-24 06:57:00,74.9,72.4,30.05,SSE,163,0.0,0.0,92,0.00,,---,0.00,47.00,VWS V14.00,2013-06-24 11:57:00,
2013-06-24 07:00:00,74.9,72.4,30.05,SSE,163,0.0,1.0,92,0.00,,---,0.00,47.00,VWS V14.00,2013-06-24 12:00:00,
2013-06-24 07:02:00,75.0,72.5,30.05,SSE,163,0.0,2.0,92,0.00,,---,0.00,51.00,VWS V14.00,2013-06-24 12:02:00,
2013-06-24 07:07:00,75.2,72.7,30.06,South,180,0.0,5.0,92,0.00,,---,0.00,53.00,VWS V14.00,2013-06-24 12:07:00,
2013-06-24 07:12:00,75.3,72.8,30.06,SSE,153,4.0,5.0,92,0.00,,---,0.00,56.00,VWS V14.00,2013-06-24 12:12:00,
2013-06-24 07:18:00,75.5,72.7,30.06,SSE,148,0.0,5.0,91,0.00,,---,0.00,62.00,VWS V14.00,2013-06-24 12:18:00,
2013-06-24 07:23:00,75.7,72.9,30.07,SSE,148,0.0,6.0,91,0.00,,---,0.00,63.00,VWS V14.00,2013-06-24 12:23:00,
2013-06-24 07:28:00,75.9,73.1,30.06,SE,143,0.0,4.0,91,0.00,,---,0.00,65.00,VWS V14.00,2013-06-24 12:28:00,
2013-06-24 07:30:00,75.8,73.0,30.06,SSE,152,0.0,6.0,91,0.00,,---,0.00,65.00,VWS V14.00,2013-06-24 12:30:00,
2013-06-24 07:33:00,76.2,73.1,30.07,South,179,0.0,6.0,90,0.00,,---,0.00,67.00,VWS V14.00,2013-06-24 12:33:00,
2013-06-24 07:38:00,76.4,73.2,30.07,SE,137,6.0,6.0,90,0.00,,---,0.00,69.00,VWS V14.00,2013-06-24 12:38:00,
2013-06-24 07:44:00,76.7,73.6,30.07,SSE,154,0.0,6.0,90,0.00,,---,0.00,72.00,VWS V14.00,2013-06-24 12:44:00,
2013-06-24 07:49:00,76.8,73.7,30.07,SE,146,3.0,6.0,90,0.00,,---,0.00,76.00,VWS V14.00,2013-06-24 12:49:00,
2013-06-24 07:54:00,77.0,73.5,30.07,SSE,150,0.0,6.0,89,0.00,,---,0.00,77.00,VWS V14.00,2013-06-24 12:54:00,
2013-06-24 07:59:00,77.2,73.7,30.08,SE,139,5.0,6.0,89,0.00,,---,0.00,79.00,VWS V14.00,2013-06-24 12:59:00,
2013-06-24 08:00:00,77.1,73.9,30.07,SSE,165,1.0,6.0,90,0.00,,---,0.00,77.00,VWS V14.00,2013-06-24 13:00:00,
2013-06-24 08:04:00,77.3,73.8,30.08,ESE,117,5.0,6.0,89,0.00,,---,0.00,86.00,VWS V14.00,2013-06-24 13:04:00,
2013-06-24 08:09:00,77.5,74.0,30.08,SSE,161,0.0,7.0,89,0.00,,---,0.00,84.00,VWS V14.00,2013-06-24 13:09:00,
2013-06-24 08:14:00,77.7,73.9,30.08,SE,146,6.0,7.0,88,0.00,,---,0.00,88.00,VWS V14.00,2013-06-24 13:14:00,
2013-06-24 08:19:00,77.9,74.1,30.08,South,184,0.0,7.0,88,0.00,,---,0.00,90.00,VWS V14.00,2013-06-24 13:19:00,
2013-06-24 08:24:00,78.1,74.3,30.08,SSE,161,0.0,7.0,88,0.00,,---,0.00,102.00,VWS V14.00,2013-06-24 13:24:00,
2013-06-24 08:29:00,78.4,74.6,30.08,South,182,0.0,0.0,88,0.00,,---,0.00,88.00,VWS V14.00,2013-06-24 13:29:00,
2013-06-24 08:30:00,78.2,74.4,30.08,South,182,0.0,7.0,88,0.00,,---,0.00,76.00,VWS V14.00,2013-06-24 13:30:00,
2013-06-24 08:34:00,78.8,74.9,30.08,SSE,165,0.0,8.0,88,0.00,,---,0.00,178.00,VWS V14.00,2013-06-24 13:34:00,
2013-06-24 08:39:00,79.1,74.9,30.08,South,184,0.0,8.0,87,0.00,,---,0.00,320.00,VWS V14.00,2013-06-24 13:39:00,
2013-06-24 08:44:00,79.3,74.8,30.08,South,188,7.0,8.0,86,0.00,,---,0.00,302.00,VWS V14.00,2013-06-24 13:44:00,
2013-06-24 08:49:00,79.6,75.1,30.08,South,188,3.0,8.0,86,0.00,,---,0.00,359.00,VWS V14.00,2013-06-24 13:49:00,
2013-06-24 08:54:00,79.9,75.0,30.09,South,177,1.0,8.0,85,0.00,,---,0.00,376.00,VWS V14.00,2013-06-24 13:54:00,
2013-06-24 08:59:00,80.2,75.3,30.09,SSE,148,0.0,6.0,85,0.00,,---,0.00,394.00,VWS V14.00,2013-06-24 13:59:00,
2013-06-24 09:00:00,80.0,75.1,30.09,South,181,6.0,8.0,85,0.00,,---,0.00,381.00,VWS V14.00,2013-06-24 14:00:00,
2013-06-24 09:04:00,80.6,75.7,30.09,South,175,4.0,6.0,85,0.00,,---,0.00,406.00,VWS V14.00,2013-06-24 14:04:00,
2013-06-24 09:09:00,80.9,75.6,30.08,SSW,194,0.0,7.0,84,0.00,,---,0.00,422.00,VWS V14.00,2013-06-24 14:09:00,
2013-06-24 09:14:00,81.2,75.6,30.08,SSW,202,0.0,7.0,83,0.00,,---,0.00,438.00,VWS V14.00,2013-06-24 14:14:00,
2013-06-24 09:19:00,81.5,75.8,30.08,South,169,0.0,7.0,83,0.00,,---,0.00,454.00,VWS V14.00,2013-06-24 14:19:00,
2013-06-24 09:24:00,81.7,75.7,30.08,South,173,0.0,7.0,82,0.00,,---,0.00,468.00,VWS V14.00,2013-06-24 14:24:00,
2013-06-24 09:29:00,81.9,75.9,30.08,SSW,207,3.0,6.0,82,0.00,,---,0.00,482.00,VWS V14.00,2013-06-24 14:29:00,
2013-06-24 09:30:00,81.8,76.1,30.08,South,188,0.0,7.0,83,0.00,,---,0.00,473.00,VWS V14.00,2013-06-24 14:30:00,
2013-06-24 09:34:00,82.1,76.1,30.08,SSE,156,0.0,6.0,82,0.00,,---,0.00,496.00,VWS V14.00,2013-06-24 14:34:00,
2013-06-24 09:40:00,82.3,75.9,30.08,South,188,0.0,6.0,81,0.00,,---,0.00,512.00,VWS V14.00,2013-06-24 14:40:00,
2013-06-24 09:45:00,82.3,75.9,30.08,SSW,196,0.0,6.0,81,0.00,,---,0.00,522.00,VWS V14.00,2013-06-24 14:45:00,
2013-06-24 09:50:00,82.6,76.6,30.08,SW,218,0.0,6.0,82,0.00,,---,0.00,534.00,VWS V14.00,2013-06-24 14:50:00,
2013-06-24 09:55:00,82.9,76.5,30.08,South,188,0.0,6.0,81,0.00,,---,0.00,548.00,VWS V14.00,2013-06-24 14:55:00,
2013-06-24 10:00:00,83.2,77.1,30.08,South,191,0.0,0.0,82,0.00,,---,0.00,559.00,VWS V14.00,2013-06-24 15:00:00,
2013-06-24 10:05:00,83.4,76.6,30.08,South,171,0.0,5.0,80,0.00,,---,0.00,571.00,VWS V14.00,2013-06-24 15:05:00,
2013-06-24 10:10:00,83.7,77.2,30.08,SSW,201,0.0,6.0,81,0.00,,---,0.00,582.00,VWS V14.00,2013-06-24 15:10:00,
2013-06-24 10:15:00,83.9,76.7,30.08,SSW,198,0.0,7.0,79,0.00,,---,0.00,598.00,VWS V14.00,2013-06-24 15:15:00,
2013-06-24 10:20:00,84.1,76.9,30.08,South,186,0.0,7.0,79,0.00,,---,0.00,608.00,VWS V14.00,2013-06-24 15:20:00,
2013-06-24 10:25:00,84.2,77.0,30.08,SW,233,3.0,7.0,79,0.00,,---,0.00,622.00,VWS V14.00,2013-06-24 15:25:00,
2013-06-24 10:30:00,84.4,76.8,30.07,South,186,0.0,9.0,78,0.00,,---,0.00,636.00,VWS V14.00,2013-06-24 15:30:00,
2013-06-24 10:35:00,84.6,77.0,30.07,SSW,209,0.0,9.0,78,0.00,,---,0.00,633.00,VWS V14.00,2013-06-24 15:35:00,
2013-06-24 10:40:00,85.0,77.0,30.07,South,171,0.0,9.0,77,0.00,,---,0.00,654.00,VWS V14.00,2013-06-24 15:40:00,
2013-06-24 10:45:00,85.4,78.2,30.08,SW,233,4.0,9.0,79,0.00,,---,0.00,663.00,VWS V14.00,2013-06-24 15:45:00,
2013-06-24 10:50:00,85.6,76.8,30.08,WSW,238,0.0,9.0,75,0.00,,---,0.00,677.00,VWS V14.00,2013-06-24 15:50:00,
2013-06-24 10:55:00,85.8,77.4,30.08,SSE,163,0.0,9.0,76,0.00,,---,0.00,687.00,VWS V14.00,2013-06-24 15:55:00,
2013-06-24 11:00:00,86.1,76.8,30.08,SSW,192,0.0,5.0,74,0.00,,---,0.00,691.00,VWS V14.00,2013-06-24 16:00:00,
2013-06-24 11:05:00,86.2,76.9,30.07,SW,232,0.0,9.0,74,0.00,,---,0.00,703.00,VWS V14.00,2013-06-24 16:05:00,
2013-06-24 11:10:00,86.3,77.0,30.07,SSW,195,0.0,9.0,74,0.00,,---,0.00,710.00,VWS V14.00,2013-06-24 16:10:00,
2013-06-24 11:16:00,86.6,77.3,30.07,South,179,0.0,10.0,74,0.00,,---,0.00,722.00,VWS V14.00,2013-06-24 16:16:00,
2013-06-24 11:21:00,86.8,77.1,30.07,SSW,194,0.0,10.0,73,0.00,,---,0.00,731.00,VWS V14.00,2013-06-24 16:21:00,
2013-06-24 11:26:00,86.9,76.8,30.07,SSW,197,0.0,10.0,72,0.00,,---,0.00,738.00,VWS V14.00,2013-06-24 16:26:00,
2013-06-24 11:30:00,86.9,76.8,30.07,SSW,197,0.0,10.0,72,0.00,,---,0.00,738.00,VWS V14.00,2013-06-24 16:30:00,
2013-06-24 11:31:00,86.9,76.4,30.07,South,190,0.0,7.0,71,0.00,,---,0.00,747.00,VWS V14.00,2013-06-24 16:31:00,
2013-06-24 11:36:00,87.1,76.1,30.07,South,181,0.0,7.0,70,0.00,,---,0.00,754.00,VWS V14.00,2013-06-24 16:36:00,
2013-06-24 11:41:00,87.2,76.2,30.07,SW,224,0.0,7.0,70,0.00,,---,0.00,758.00,VWS V14.00,2013-06-24 16:41:00,
2013-06-24 11:46:00,87.4,76.8,30.07,SW,224,1.0,7.0,71,0.00,,---,0.00,770.00,VWS V14.00,2013-06-24 16:46:00,
2013-06-24 11:51:00,87.8,76.4,30.07,WSW,240,3.0,7.0,69,0.00,,---,0.00,777.00,VWS V14.00,2013-06-24 16:51:00,
2013-06-24 11:57:00,88.0,76.6,30.06,SSW,199,0.0,0.0,69,0.00,,---,0.00,601.00,VWS V14.00,2013-06-24 16:57:00,
2013-06-24 12:00:00,88.0,76.1,30.06,SSW,199,0.0,7.0,68,0.00,,---,0.00,601.00,VWS V14.00,2013-06-24 17:00:00,
2013-06-24 12:02:00,88.3,76.8,30.06,SW,228,0.0,4.0,69,0.00,,---,0.00,160.00,VWS V14.00,2013-06-24 17:02:00,
2013-06-24 12:07:00,88.4,76.1,30.06,SSE,165,1.0,5.0,67,0.00,,---,0.00,149.00,VWS V14.00,2013-06-24 17:07:00,
2013-06-24 12:12:00,88.4,76.5,30.06,SSW,200,5.0,5.0,68,0.00,,---,0.00,155.00,VWS V14.00,2013-06-24 17:12:00,
2013-06-24 12:17:00,88.5,76.2,30.06,SSW,192,0.0,5.0,67,0.00,,---,0.00,162.00,VWS V14.00,2013-06-24 17:17:00,
2013-06-24 12:22:00,88.7,77.2,30.06,SSW,196,0.0,5.0,69,0.00,,---,0.00,186.00,VWS V14.00,2013-06-24 17:22:00,
2013-06-24 12:27:00,89.2,76.8,30.05,South,184,0.0,3.0,67,0.00,,---,0.00,169.00,VWS V14.00,2013-06-24 17:27:00,
2013-06-24 12:30:00,89.1,78.0,30.05,SSE,167,1.0,5.0,70,0.00,,---,0.00,171.00,VWS V14.00,2013-06-24 17:30:00,
2013-06-24 12:32:00,89.4,75.6,30.05,West,261,0.0,7.0,64,0.00,,---,0.00,163.00,VWS V14.00,2013-06-24 17:32:00,
2013-06-24 12:38:00,89.4,76.6,30.05,West,261,0.0,7.0,66,0.00,,---,0.00,185.00,VWS V14.00,2013-06-24 17:38:00,
2013-06-24 12:43:00,89.7,75.0,30.05,WSW,238,0.0,7.0,62,0.00,,---,0.00,271.00,VWS V14.00,2013-06-24 17:43:00,
2013-06-24 12:48:00,89.7,75.4,30.04,WSW,245,1.0,9.0,63,0.00,,---,0.00,657.00,VWS V14.00,2013-06-24 17:48:00,
2013-06-24 12:53:00,89.7,75.0,30.04,WSW,252,0.0,9.0,62,0.00,,---,0.00,178.00,VWS V14.00,2013-06-24 17:53:00,
2013-06-24 12:58:00,89.6,75.3,30.04,SSE,155,0.0,0.0,63,0.00,,---,0.00,854.00,VWS V14.00,2013-06-24 17:58:00,
2013-06-24 13:00:00,89.6,76.3,30.04,SSE,155,0.0,9.0,65,0.00,,---,0.00,874.00,VWS V14.00,2013-06-24 18:00:00,
2013-06-24 13:03:00,90.0,76.2,30.04,SE,145,3.0,10.0,64,0.00,,---,0.00,868.00,VWS V14.00,2013-06-24 18:03:00,
2013-06-24 13:08:00,90.4,76.6,30.03,SSE,167,0.0,10.0,64,0.00,,---,0.00,849.00,VWS V14.00,2013-06-24 18:08:00,
2013-06-24 13:13:00,90.5,76.2,30.03,SSW,206,1.0,10.0,63,0.00,,---,0.00,863.00,VWS V14.00,2013-06-24 18:13:00,
2013-06-24 13:18:00,90.7,76.4,30.03,SSW,212,4.0,10.0,63,0.00,,---,0.00,893.00,VWS V14.00,2013-06-24 18:18:00,
2013-06-24 13:23:00,90.7,75.9,30.02,WSW,246,1.0,10.0,62,0.00,,---,0.00,907.00,VWS V14.00,2013-06-24 18:23:00,
2013-06-24 13:28:00,90.8,76.5,30.02,South,172,2.0,6.0,63,0.00,,---,0.00,884.00,VWS V14.00,2013-06-24 18:28:00,
2013-06-24 13:30:00,90.8,76.9,30.02,South,182,6.0,10.0,64,0.00,,---,0.00,900.00,VWS V14.00,2013-06-24 18:30:00,
2013-06-24 13:34:00,90.6,75.8,30.02,South,178,0.0,6.0,62,0.00,,---,0.00,893.00,VWS V14.00,2013-06-24 18:34:00,
2013-06-24 13:39:00,90.5,76.2,30.02,South,191,9.0,9.0,63,0.00,,---,0.00,912.00,VWS V14.00,2013-06-24 18:39:00,
2013-06-24 13:44:00,90.5,75.2,30.02,SSE,165,4.0,9.0,61,0.00,,---,0.00,886.00,VWS V14.00,2013-06-24 18:44:00,
2013-06-24 13:49:00,90.6,75.8,30.02,SSE,163,0.0,9.0,62,0.00,,---,0.00,846.00,VWS V14.00,2013-06-24 18:49:00,
2013-06-24 13:54:00,90.5,76.2,30.02,South,180,0.0,9.0,63,0.00,,---,0.00,870.00,VWS V14.00,2013-06-24 18:54:00,
2013-06-24 13:59:00,90.7,77.3,30.02,SW,220,0.0,3.0,65,0.00,,---,0.00,865.00,VWS V14.00,2013-06-24 18:59:00,
2013-06-24 14:00:00,90.5,75.7,30.02,SW,220,1.0,9.0,62,0.00,,---,0.00,860.00,VWS V14.00,2013-06-24 19:00:00,
2013-06-24 14:04:00,91.0,76.7,30.02,SW,229,2.0,7.0,63,0.00,,---,0.00,807.00,VWS V14.00,2013-06-24 19:04:00,
2013-06-24 14:09:00,91.1,76.3,30.01,South,186,3.0,7.0,62,0.00,,---,0.00,842.00,VWS V14.00,2013-06-24 19:09:00,
2013-06-24 14:14:00,91.2,76.4,30.01,SSW,210,4.0,7.0,62,0.00,,---,0.00,838.00,VWS V14.00,2013-06-24 19:14:00,
2013-06-24 14:20:00,91.0,76.7,30.01,SSE,159,1.0,10.0,63,0.00,,---,0.00,831.00,VWS V14.00,2013-06-24 19:20:00,
2013-06-24 14:25:00,91.2,75.9,30.01,ESE,105,0.0,10.0,61,0.00,,---,0.00,183.00,VWS V14.00,2013-06-24 19:25:00,
2013-06-24 14:30:00,91.2,76.4,30.00,SSW,202,0.0,5.0,62,0.00,,---,0.00,842.00,VWS V14.00,2013-06-24 19:30:00,
2013-06-24 14:35:00,91.0,76.7,30.00,South,185,0.0,7.0,63,0.00,,---,0.00,810.00,VWS V14.00,2013-06-24 19:35:00,
2013-06-24 14:40:00,90.9,76.1,30.00,SSW,205,0.0,7.0,62,0.00,,---,0.00,793.00,VWS V14.00,2013-06-24 19:40:00,
2013-06-24 14:45:00,91.0,75.7,30.00,SW,234,0.0,7.0,61,0.00,,---,0.00,773.00,VWS V14.00,2013-06-24 19:45:00,
2013-06-24 14:50:00,91.2,77.8,30.00,ESE,117,0.0,7.0,65,0.00,,---,0.00,793.00,VWS V14.00,2013-06-24 19:50:00,
2013-06-24 14:56:00,91.5,76.2,30.00,SSW,198,6.0,9.0,61,0.00,,---,0.00,229.00,VWS V14.00,2013-06-24 19:56:00,
2013-06-24 15:00:00,91.4,76.1,30.00,South,175,5.0,9.0,61,0.00,,---,0.00,197.00,VWS V14.00,2013-06-24 20:00:00,
2013-06-24 15:01:00,90.9,76.6,30.00,South,190,1.0,5.0,63,0.00,,---,0.00,780.00,VWS V14.00,2013-06-24 20:01:00,
2013-06-24 15:05:00,90.7,76.4,30.00,SSE,164,1.0,5.0,63,0.00,,---,0.00,777.00,VWS V14.00,2013-06-24 20:05:00,
2013-06-24 15:10:00,90.9,75.6,30.00,SW,236,2.0,7.0,61,0.00,,---,0.00,742.00,VWS V14.00,2013-06-24 20:10:00,
2013-06-24 15:15:00,91.0,76.7,30.00,SE,130,4.0,7.0,63,0.00,,---,0.00,768.00,VWS V14.00,2013-06-24 20:15:00,
2013-06-24 15:21:00,91.0,76.7,29.99,SE,145,6.0,9.0,63,0.00,,---,0.00,726.00,VWS V14.00,2013-06-24 20:21:00,
2013-06-24 15:26:00,91.1,75.3,29.99,South,188,4.0,9.0,60,0.00,,---,0.00,719.00,VWS V14.00,2013-06-24 20:26:00,
2013-06-24 15:30:00,91.1,75.3,30.00,SSW,198,2.0,9.0,60,0.00,,---,0.00,707.00,VWS V14.00,2013-06-24 20:30:00,
2013-06-24 15:31:00,91.3,76.0,29.99,SSE,163,3.0,6.0,61,0.00,,---,0.00,715.00,VWS V14.00,2013-06-24 20:31:00,
2013-06-24 15:36:00,91.4,76.6,30.00,South,179,2.0,7.0,62,0.00,,---,0.00,700.00,VWS V14.00,2013-06-24 20:36:00,
2013-06-24 15:41:00,91.6,75.8,30.00,SSE,157,6.0,11.0,60,0.00,,---,0.00,673.00,VWS V14.00,2013-06-24 20:41:00,
2013-06-24 15:47:00,91.5,76.2,29.99,SSW,194,4.0,11.0,61,0.00,,---,0.00,684.00,VWS V14.00,2013-06-24 20:47:00,
2013-06-24 15:51:00,91.4,77.0,29.99,SSE,161,1.0,11.0,63,0.00,,---,0.00,649.00,VWS V14.00,2013-06-24 20:51:00,
2013-06-24 15:57:00,91.5,76.2,29.99,SSW,195,4.0,4.0,61,0.00,,---,0.00,636.00,VWS V14.00,2013-06-24 20:57:00,
2013-06-24 16:00:00,91.5,76.7,30.00,SSW,198,1.0,11.0,62,0.00,,---,0.00,636.00,VWS V14.00,2013-06-24 21:00:00,
2013-06-24 16:02:00,91.3,75.5,30.00,SSW,194,0.0,7.0,60,0.00,,---,0.00,626.00,VWS V14.00,2013-06-24 21:02:00,
2013-06-24 16:07:00,91.2,75.9,29.99,SSW,200,5.0,9.0,61,0.00,,---,0.00,617.00,VWS V14.00,2013-06-24 21:07:00,
2013-06-24 16:12:00,90.9,75.1,29.99,SSW,205,0.0,11.0,60,0.00,,---,0.00,563.00,VWS V14.00,2013-06-24 21:12:00,
2013-06-24 16:17:00,91.0,75.7,29.99,SSW,197,2.0,11.0,61,0.00,,---,0.00,592.00,VWS V14.00,2013-06-24 21:17:00,
2013-06-24 16:22:00,91.1,75.3,29.99,SSW,192,4.0,11.0,60,0.00,,---,0.00,578.00,VWS V14.00,2013-06-24 21:22:00,
2013-06-24 16:27:00,91.2,75.4,29.98,South,177,3.0,6.0,60,0.00,,---,0.00,570.00,VWS V14.00,2013-06-24 21:27:00,
2013-06-24 16:30:00,91.1,75.8,29.99,SSW,205,3.0,11.0,61,0.00,,---,0.00,570.00,VWS V14.00,2013-06-24 21:30:00,
2013-06-24 16:32:00,91.3,76.0,29.99,SSE,161,2.0,7.0,61,0.00,,---,0.00,555.00,VWS V14.00,2013-06-24 21:32:00,
2013-06-24 16:37:00,91.4,75.6,29.99,SSW,194,1.0,7.0,60,0.00,,---,0.00,543.00,VWS V14.00,2013-06-24 21:37:00,
2013-06-24 16:42:00,91.4,75.6,29.98,South,170,3.0,10.0,60,0.00,,---,0.00,527.00,VWS V14.00,2013-06-24 21:42:00,
2013-06-24 16:47:00,91.6,75.8,29.98,South,180,4.0,10.0,60,0.00,,---,0.00,513.00,VWS V14.00,2013-06-24 21:47:00,
2013-06-24 16:52:00,91.7,76.3,29.98,SE,146,3.0,10.0,61,0.00,,---,0.00,492.00,VWS V14.00,2013-06-24 21:52:00,
2013-06-24 16:57:00,91.8,76.4,29.98,SSW,204,4.0,4.0,61,0.00,,---,0.00,485.00,VWS V14.00,2013-06-24 21:57:00,
2013-06-24 17:00:00,91.8,75.4,29.98,SW,218,4.0,10.0,59,0.00,,---,0.00,487.00,VWS V14.00,2013-06-24 22:00:00,
2013-06-24 17:02:00,91.6,76.2,29.98,SSE,165,5.0,9.0,61,0.00,,---,0.00,468.00,VWS V14.00,2013-06-24 22:02:00,
2013-06-24 17:07:00,91.4,75.6,29.98,SSW,202,3.0,9.0,60,0.00,,---,0.00,457.00,VWS V14.00,2013-06-24 22:07:00,
2013-06-24 17:12:00,91.1,74.8,29.98,South,190,1.0,9.0,59,0.00,,---,0.00,431.00,VWS V14.00,2013-06-24 22:12:00,
2013-06-24 17:17:00,91.1,74.8,29.98,South,183,3.0,9.0,59,0.00,,---,0.00,431.00,VWS V14.00,2013-06-24 22:17:00,
2013-06-24 17:22:00,91.0,74.7,29.98,SSW,209,3.0,9.0,59,0.00,,---,0.00,411.00,VWS V14.00,2013-06-24 22:22:00,
2013-06-24 17:27:00,90.9,75.1,29.98,South,178,1.0,5.0,60,0.00,,---,0.00,401.00,VWS V14.00,2013-06-24 22:27:00,
2013-06-24 17:30:00,90.9,75.1,29.98,SSW,192,2.0,9.0,60,0.00,,---,0.00,404.00,VWS V14.00,2013-06-24 22:30:00,
2013-06-24 17:32:00,90.8,75.0,29.98,South,187,9.0,10.0,60,0.00,,---,0.00,383.00,VWS V14.00,2013-06-24 22:32:00,
2013-06-24 17:37:00,90.7,74.9,29.97,South,178,2.0,10.0,60,0.00,,---,0.00,366.00,VWS V14.00,2013-06-24 22:37:00,
2013-06-24 17:42:00,90.7,75.4,29.97,SSE,161,2.0,10.0,61,0.00,,---,0.00,341.00,VWS V14.00,2013-06-24 22:42:00,
2013-06-24 17:47:00,90.8,75.0,29.97,SSE,162,2.0,10.0,60,0.00,,---,0.00,330.00,VWS V14.00,2013-06-24 22:47:00,
2013-06-24 17:52:00,90.8,75.5,29.97,South,181,3.0,10.0,61,0.00,,---,0.00,322.00,VWS V14.00,2013-06-24 22:52:00,
2013-06-24 17:58:00,90.6,75.8,29.98,South,182,2.0,3.0,62,0.00,,---,0.00,304.00,VWS V14.00,2013-06-24 22:58:00,
2013-06-24 18:00:00,90.7,75.4,29.97,South,191,1.0,10.0,61,0.00,,---,0.00,311.00,VWS V14.00,2013-06-24 23:00:00,
2013-06-24 18:03:00,90.4,74.6,29.97,SSW,195,1.0,6.0,60,0.00,,---,0.00,271.00,VWS V14.00,2013-06-24 23:03:00,
2013-06-24 18:08:00,90.0,75.2,29.97,SSW,195,0.0,6.0,62,0.00,,---,0.00,39.00,VWS V14.00,2013-06-24 23:08:00,
2013-06-24 18:13:00,89.6,74.9,29.96,South,186,0.0,6.0,62,0.00,,---,0.00,37.00,VWS V14.00,2013-06-24 23:13:00,
2013-06-24 18:18:00,89.3,75.5,29.97,South,185,0.0,6.0,64,0.00,,---,0.00,107.00,VWS V14.00,2013-06-24 23:18:00,
2013-06-24 18:23:00,88.8,75.1,29.97,South,186,0.0,6.0,64,0.00,,---,0.00,69.00,VWS V14.00,2013-06-24 23:23:00,
2013-06-24 18:28:00,88.4,75.6,29.97,South,186,0.0,0.0,66,0.00,,---,0.00,62.00,VWS V14.00,2013-06-24 23:28:00,
2013-06-24 18:30:00,88.6,75.8,29.97,South,186,0.0,6.0,66,0.00,,---,0.00,79.00,VWS V14.00,2013-06-24 23:30:00,
2013-06-24 18:33:00,88.2,75.9,29.97,South,186,0.0,0.0,67,0.00,,---,0.00,70.00,VWS V14.00,2013-06-24 23:33:00,
2013-06-24 18:38:00,88.1,76.2,29.97,South,186,0.0,0.0,68,0.00,,---,0.00,130.00,VWS V14.00,2013-06-24 23:38:00,
2013-06-24 18:43:00,88.1,76.7,29.98,South,186,0.0,0.0,69,0.00,,---,0.00,169.00,VWS V14.00,2013-06-24 23:43:00,
2013-06-24 18:48:00,88.3,76.4,29.97,South,186,0.0,0.0,68,0.00,,---,0.00,185.00,VWS V14.00,2013-06-24 23:48:00,
2013-06-24 18:54:00,88.4,76.9,29.98,South,186,0.0,0.0,69,0.00,,---,0.00,190.00,VWS V14.00,2013-06-24 23:54:00,
2013-06-24 18:59:00,88.5,77.0,29.97,South,186,0.0,0.0,69,0.00,,---,0.00,185.00,VWS V14.00,2013-06-24 23:59:00,
2013-06-24 19:00:00,88.4,76.5,29.97,South,186,0.0,0.0,68,0.00,,---,0.00,192.00,VWS V14.00,2013-06-25 00:00:00,
2013-06-24 19:04:00,88.5,77.0,29.97,South,186,0.0,3.0,69,0.00,,---,0.00,109.00,VWS V14.00,2013-06-25 00:04:00,
2013-06-24 19:09:00,88.4,76.9,29.97,South,175,2.0,3.0,69,0.00,,---,0.00,105.00,VWS V14.00,2013-06-25 00:09:00,
2013-06-24 19:14:00,88.3,77.3,29.97,South,175,0.0,3.0,70,0.00,,---,0.00,107.00,VWS V14.00,2013-06-25 00:14:00,
2013-06-24 19:19:00,88.2,77.2,29.98,South,175,0.0,3.0,70,0.00,,---,0.00,111.00,VWS V14.00,2013-06-25 00:19:00,
2013-06-24 19:24:00,88.2,77.2,29.98,South,175,0.0,3.0,70,0.00,,---,0.00,69.00,VWS V14.00,2013-06-25 00:24:00,
2013-06-24 19:29:00,88.1,77.5,29.98,South,175,0.0,0.0,71,0.00,,---,0.00,51.00,VWS V14.00,2013-06-25 00:29:00,
2013-06-24 19:30:00,88.1,77.5,29.98,South,175,0.0,3.0,71,0.00,,---,0.00,60.00,VWS V14.00,2013-06-25 00:30:00,
2013-06-24 19:34:00,88.0,77.4,29.99,South,175,0.0,0.0,71,0.00,,---,0.00,39.00,VWS V14.00,2013-06-25 00:34:00,
2013-06-24 19:39:00,87.9,77.3,29.98,South,175,0.0,0.0,71,0.00,,---,0.00,30.00,VWS V14.00,2013-06-25 00:39:00,
2013-06-24 19:44:00,87.7,77.1,29.98,South,175,0.0,0.0,71,0.00,,---,0.00,23.00,VWS V14.00,2013-06-25 00:44:00,
2013-06-24 19:49:00,87.5,76.9,29.98,South,175,0.0,0.0,71,0.00,,---,0.00,19.00,VWS V14.00,2013-06-25 00:49:00,
2013-06-24 19:54:00,87.3,76.8,29.98,South,175,0.0,0.0,71,0.00,,---,0.00,18.00,VWS V14.00,2013-06-25 00:54:00,
2013-06-24 19:59:00,87.1,77.0,29.98,South,175,0.0,0.0,72,0.00,,---,0.00,14.00,VWS V14.00,2013-06-25 00:59:00,
2013-06-24 20:00:00,87.2,76.7,29.98,South,175,0.0,0.0,71,0.00,,---,0.00,16.00,VWS V14.00,2013-06-25 01:00:00,
2013-06-24 20:04:00,86.9,77.2,29.98,South,175,0.0,0.0,73,0.00,,---,0.00,11.00,VWS V14.00,2013-06-25 01:04:00,
2013-06-24 20:09:00,86.6,76.9,29.98,South,175,0.0,0.0,73,0.00,,---,0.00,7.00,VWS V14.00,2013-06-25 01:09:00,
2013-06-24 20:15:00,86.3,76.6,29.98,South,175,0.0,0.0,73,0.00,,---,0.00,0.00,VWS V14.00,2013-06-25 01:15:00,
2013-06-24 20:20:00,86.0,76.8,29.98,South,175,0.0,0.0,74,0.00,,---,0.00,0.00,VWS V14.00,2013-06-25 01:20:00,
2013-06-24 20:25:00,85.6,76.4,29.99,South,175,0.0,0.0,74,0.00,,---,0.00,0.00,VWS V14.00,2013-06-25 01:25:00,
2013-06-24 20:30:00,85.3,76.5,29.98,South,175,0.0,0.0,75,0.00,,---,0.00,0.00,VWS V14.00,2013-06-25 01:30:00,
2013-06-24 20:35:00,85.0,76.6,29.98,South,175,0.0,0.0,76,0.00,,---,0.00,0.00,VWS V14.00,2013-06-25 01:35:00,
2013-06-24 20:40:00,84.6,76.2,29.98,South,175,0.0,0.0,76,0.00,,---,0.00,0.00,VWS V14.00,2013-06-25 01:40:00,
2013-06-24 20:45:00,84.3,76.3,29.99,South,175,0.0,0.0,77,0.00,,---,0.00,0.00,VWS V14.00,2013-06-25 01:45:00,
2013-06-24 20:50:00,84.1,76.5,29.98,South,175,0.0,0.0,78,0.00,,---,0.00,0.00,VWS V14.00,2013-06-25 01:50:00,
2013-06-24 20:55:00,83.8,76.2,29.98,South,175,0.0,0.0,78,0.00,,---,0.00,0.00,VWS V14.00,2013-06-25 01:55:00,
2013-06-24 21:00:00,83.6,76.4,29.98,South,175,0.0,0.0,79,0.00,,---,0.00,0.00,VWS V14.00,2013-06-25 02:00:00,
2013-06-24 21:05:00,83.3,76.1,29.98,South,175,0.0,0.0,79,0.00,,---,0.00,0.00,VWS V14.00,2013-06-25 02:05:00,
2013-06-24 21:10:00,83.1,76.3,29.98,South,175,0.0,0.0,80,0.00,,---,0.00,0.00,VWS V14.00,2013-06-25 02:10:00,
2013-06-24 21:15:00,82.9,76.1,29.98,South,175,0.0,0.0,80,0.00,,---,0.00,0.00,VWS V14.00,2013-06-25 02:15:00,
2013-06-24 21:20:00,82.7,75.9,29.98,South,175,0.0,0.0,80,0.00,,---,0.00,0.00,VWS V14.00,2013-06-25 02:20:00,
2013-06-24 21:25:00,82.5,76.1,29.98,South,175,0.0,0.0,81,0.00,,---,0.00,0.00,VWS V14.00,2013-06-25 02:25:00,
2013-06-24 21:30:00,82.5,76.1,29.98,South,175,0.0,0.0,81,0.00,,---,0.00,0.00,VWS V14.00,2013-06-25 02:30:00,
2013-06-24 21:31:00,82.4,76.0,29.98,South,175,0.0,0.0,81,0.00,,---,0.00,0.00,VWS V14.00,2013-06-25 02:31:00,
2013-06-24 21:36:00,82.2,75.8,29.98,South,175,0.0,0.0,81,0.00,,---,0.00,0.00,VWS V14.00,2013-06-25 02:36:00,
2013-06-24 21:41:00,82.1,75.7,29.99,South,175,0.0,0.0,81,0.00,,---,0.00,0.00,VWS V14.00,2013-06-25 02:41:00,
2013-06-24 21:46:00,82.0,75.6,29.99,South,175,0.0,0.0,81,0.00,,---,0.00,0.00,VWS V14.00,2013-06-25 02:46:00,
2013-06-24 21:51:00,81.9,75.5,29.99,South,175,0.0,1.0,81,0.00,,---,0.00,0.00,VWS V14.00,2013-06-25 02:51:00,
2013-06-24 21:56:00,81.8,75.4,29.99,South,175,0.0,1.0,81,0.00,,---,0.00,0.00,VWS V14.00,2013-06-25 02:56:00,
2013-06-24 22:00:00,81.8,75.4,29.99,South,175,0.0,1.0,81,0.00,,---,0.00,0.00,VWS V14.00,2013-06-25 03:00:00,
2013-06-24 22:01:00,81.8,75.4,29.99,South,175,0.0,0.0,81,0.00,,---,0.00,0.00,VWS V14.00,2013-06-25 03:01:00,
2013-06-24 22:06:00,81.6,75.2,29.99,South,175,0.0,0.0,81,0.00,,---,0.00,0.00,VWS V14.00,2013-06-25 03:06:00,
2013-06-24 22:11:00,81.6,75.2,30.00,South,175,0.0,0.0,81,0.00,,---,0.00,0.00,VWS V14.00,2013-06-25 03:11:00,
2013-06-24 22:17:00,81.5,75.5,30.00,South,175,0.0,0.0,82,0.00,,---,0.00,0.00,VWS V14.00,2013-06-25 03:17:00,
2013-06-24 22:22:00,81.3,75.3,30.00,South,175,0.0,0.0,82,0.00,,---,0.00,0.00,VWS V14.00,2013-06-25 03:22:00,
2013-06-24 22:27:00,81.2,75.2,30.00,South,175,0.0,0.0,82,0.00,,---,0.00,0.00,VWS V14.00,2013-06-25 03:27:00,
2013-06-24 22:30:00,81.3,75.3,30.00,South,175,0.0,0.0,82,0.00,,---,0.00,0.00,VWS V14.00,2013-06-25 03:30:00,
2013-06-24 22:32:00,81.1,75.1,30.01,South,175,0.0,0.0,82,0.00,,---,0.00,0.00,VWS V14.00,2013-06-25 03:32:00,
2013-06-24 22:38:00,81.1,75.1,30.01,South,175,0.0,0.0,82,0.00,,---,0.00,0.00,VWS V14.00,2013-06-25 03:38:00,
2013-06-24 22:43:00,81.0,75.0,30.01,South,175,0.0,0.0,82,0.00,,---,0.00,0.00,VWS V14.00,2013-06-25 03:43:00,
2013-06-24 22:48:00,80.9,75.3,30.01,South,175,0.0,0.0,83,0.00,,---,0.00,0.00,VWS V14.00,2013-06-25 03:48:00,
2013-06-24 22:53:00,80.9,75.3,30.02,South,175,0.0,0.0,83,0.00,,---,0.00,0.00,VWS V14.00,2013-06-25 03:53:00,
2013-06-24 22:58:00,80.8,75.2,30.01,South,175,0.0,0.0,83,0.00,,---,0.00,0.00,VWS V14.00,2013-06-25 03:58:00,
2013-06-24 23:00:00,80.8,75.2,30.01,South,175,0.0,0.0,83,0.00,,---,0.00,0.00,VWS V14.00,2013-06-25 04:00:00,
2013-06-24 23:01:00,80.7,75.4,30.01,SSE,150,0.0,0.0,84,0.00,,---,0.00,0.00,VWS V14.00,2013-06-25 04:01:00,
2013-06-24 23:06:00,80.6,75.3,30.02,SSE,150,0.0,0.0,84,0.00,,---,0.00,0.00,VWS V14.00,2013-06-25 04:06:00,
2013-06-24 23:11:00,80.5,75.2,30.02,SSE,150,0.0,0.0,84,0.00,,---,0.00,0.00,VWS V14.00,2013-06-25 04:11:00,
2013-06-24 23:16:00,80.2,74.9,30.01,SSE,150,0.0,0.0,84,0.00,,---,0.00,0.00,VWS V14.00,2013-06-25 04:16:00,
2013-06-24 23:21:00,80.0,74.7,30.01,SSE,150,0.0,0.0,84,0.00,,---,0.00,0.00,VWS V14.00,2013-06-25 04:21:00,
2013-06-24 23:26:00,79.8,74.9,30.01,SSE,150,0.0,0.0,85,0.00,,---,0.00,0.00,VWS V14.00,2013-06-25 04:26:00,
2013-06-24 23:30:00,79.8,74.9,30.01,SSE,150,0.0,0.0,85,0.00,,---,0.00,0.00,VWS V14.00,2013-06-25 04:30:00,
2013-06-24 23:31:00,79.7,74.8,30.01,SSE,150,0.0,1.0,85,0.00,,---,0.00,0.00,VWS V14.00,2013-06-25 04:31:00,
2013-06-24 23:36:00,79.6,75.1,30.01,SSE,150,0.0,1.0,86,0.00,,---,0.00,0.00,VWS V14.00,2013-06-25 04:36:00,
2013-06-24 23:41:00,79.6,75.1,30.01,SSE,150,0.0,4.0,86,0.00,,---,0.00,0.00,VWS V14.00,2013-06-25 04:41:00,
2013-06-24 23:46:00,79.6,75.1,30.01,SSE,150,0.0,4.0,86,0.00,,---,0.00,0.00,VWS V14.00,2013-06-25 04:46:00,
2013-06-24 23:51:00,79.6,75.1,30.01,SSE,150,0.0,4.0,86,0.00,,---,0.00,0.00,VWS V14.00,2013-06-25 04:51:00,
2013-06-24 23:56:00,79.5,74.9,30.01,SSE,150,0.0,4.0,86,0.00,,---,0.00,0.00,VWS V14.00,2013-06-25 04:56:00,